Tracking 28790 objects as of 19-Apr-2024
HD Live streaming from Space Station
objects crossing your sky now

COSMOS 252 DEB *

Track COSMOS 252 DEB * now!
10-day predictions


NORAD ID: 3901
Int'l Code: 1968-097BN
Perigee: 668.2 km
Apogee: 1,919.9 km
Inclination: 61.3 °
Period: 111.3 minutes
Semi major axis: 7665 km
RCS: 0.0068 m2 (small)
Launch date: November 1, 1968
Source: Commonwealth of Independent States (former USSR) (CIS)
Launch site: TYURATAM MISSILE AND SPACE COMPLEX (TTMTR)

Note: This is SATELLITE DEBRIS
Your satellite tracking list
Your tracking list is empty




NASA's NSSDC Master Catalog

Two Line Element Set (TLE):
1 03901U 68097BN  24109.87259657  .00001139  00000-0  94885-3 0  9999
2 03901  61.2842  22.4334 0816463 282.9401  68.1699 12.93684473575317
Source of the keplerian elements: AFSPC